Regional Weather Roundup
Issued by NWS

Home | Current Version | Previous Version | Text Only | Print | Product List | Glossary On
Versions: 1 2 3 4 5 6 7 8 9 10 11 12 13 14 15 16 17 18 19 20 21 22 23 24 25 26 27 28 29 30 31 32 33 34 35 36 37 38 39 40 41 42 43 44 45 46 47 48 49 50
000
ASUS45 KPSR 290910
RWRAZ

ARIZONA REGIONAL HOURLY WEATHER ROUNDUP
NATIONAL WEATHER SERVICE PHOENIX AZ
200 AM MST MON DEC 29 2014

NOTE: FAIR INDICATES FEW OR NO CLOUDS BELOW 12,000 FEET WITH NO
SIGNIFICANT WEATHER AND/OR OBSTRUCTIONS TO VISIBILITY.

AZZ001>003-036-291000-
NORTHWEST ARIZONA

CITY           SKY/WX    TMP DP  RH WIND       PRES   REMARKS
BULLHEAD CITY  CLEAR     37  16  41 CALM      30.15F
KINGMAN        CLEAR     25  13  60 E9        30.09F WCI  15
$$

AZZ004>008-015-016-018-291000-
NORTH CENTRAL ARIZONA

CITY           SKY/WX    TMP DP  RH WIND       PRES   REMARKS
GRAND CANYON   PTCLDY     9   4  80 NE6       30.06S WCI  -1
PRESCOTT       CLEAR     18   6  59 SW3       30.09S
FLAGSTAFF      CLEAR     19  10  68 SW6       30.04F WCI  11
PAYSON         CLEAR     27  12  54 CALM      30.11S
PAGE           CLEAR     27  11  51 W3        30.02S
$$

AZZ009>014-017-291000-
NORTHEAST ARIZONA

CITY           SKY/WX    TMP DP  RH WIND       PRES   REMARKS
WINSLOW        CLEAR     19  12  74 SE8       30.05S WCI   9
SAINT JOHNS    CLEAR     19  10  68 CALM      30.04F
WINDOW ROCK    CLEAR      7   0  73 N3        30.03R
SHOW LOW       CLEAR     25   9  50 S14G21    30.08S WCI  13
$$

AZZ023-291000-
GREATER PHOENIX AREA

CITY           SKY/WX    TMP DP  RH WIND       PRES   REMARKS
PHOENIX        CLEAR     42  25  50 E7        30.11F
BUCKEYE          N/A     32  21  64 N7        30.14R WCI  26
LUKE AFB       CLEAR     34  25  68 N7        30.12R WCI  28
DEER VALLEY    CLEAR     38  21  50 N7        30.11S WCI  33
SCOTTSDALE     CLEAR     37  25  61 CALM      30.12S
MESA-GATEWAY   CLEAR     32  25  74 E8        30.13F WCI  25
$$

AZZ027-028-291000-
SOUTHWEST MARICOPA COUNTY AND PINAL COUNTY

CITY           SKY/WX    TMP DP  RH WIND       PRES   REMARKS
CASA GRANDE    CLEAR     30  19  64 CALM      30.12S
GILA BEND      FAIR      37  22  55 S3        30.13F
$$

AZZ503-504-507>509-291000-
SOUTHEAST ARIZONA

CITY           SKY/WX    TMP DP  RH WIND       PRES   REMARKS
TUCSON         CLEAR     36  26  67 SE8       30.13F WCI  30
DAVIS-MONTHAN  CLEAR     33  26  76 S7        30.11S WCI  27
NOGALES        CLEAR     31  16  54 CALM      30.11F
SIERRA VISTA   CLEAR     32  13  45 S7        30.10F WCI  26
DOUGLAS        CLEAR     31  23  72 CALM      30.12S
SAFFORD        CLEAR     28  22  78 CALM      30.11S
$$

AZZ020-021-025-026-031-291000-
SOUTHWEST ARIZONA

CITY           SKY/WX    TMP DP  RH WIND       PRES   REMARKS
YUMA           PTCLDY   N/A N/A N/A E3        30.13F
$$

CAZ031-033-041-043-047-048-061-291000-
SOUTHERN CALIFORNIA

CITY           SKY/WX    TMP DP  RH WIND       PRES   REMARKS
DOWNTOWN L.A.  CLEAR     45  36  70 CALM      30.15F
L.A. AIRPORT   CLEAR     47  38  71 E3        30.15F
SAN DIEGO      PTCLDY    51  34  52 CALM      30.17F
BURBANK        CLEAR     42  30  62 CALM      30.14F
ONTARIO        CLEAR     42  27  55 N3        30.15F
RIVERSIDE      CLEAR     41  30  65 NE6       30.16F
PALM SPRINGS   CLEAR     41  21  44 CALM      30.13F
EL CENTRO NAS  CLEAR     37  16  42 W6        30.13F WCI  32
IMPERIAL       CLEAR     37  17  44 W6        30.12F WCI  32
BLYTHE         CLEAR     35  18  49 N8        30.13F WCI  29
NEEDLES        CLEAR     35  14  42 N3        30.13F
$$

NVZ020-UTZ003-291000-
SOUTHERN NEVADA-UTAH

CITY           SKY/WX    TMP DP  RH WIND       PRES   REMARKS
LAS VEGAS      CLEAR     34  14  43 S8        30.06F WCI  27
SALT LAKE CITY LGT SNOW  27  25  92 S5        30.01S FOG     WCI  22
$$

NMZ009-TXZ055-291000-
NEW MEXICO-WEST TEXAS

CITY           SKY/WX    TMP DP  RH WIND       PRES   REMARKS
ALBUQUERQUE    PTCLDY    25  13  60 SE5       30.04F WCI  19
EL PASO        MOCLDY    38  30  73 SE10      30.08S WCI  31
$$


........................KEY........................
SKY/WX - SKY CONDITION/WEATHER
TMP    - TEMPERATURE IN FAHRENHEIT
DP     - DEW POINT IN FAHRENHEIT
RH     - RELATIVE HUMIDITY IN PERCENT
WIND   - DIRECTION AND SPEED IN MILES PER HOUR (MPH)
VRB    - VARIABLE WIND DIRECTION
PRES   - MEAN SEA LEVEL PRESSURE IN INCHES OF MERCURY
         F - FALLING PRESSURE   R - RISING PRESSURE
         S - STEADY PRESSURE
VSB    - VISIBILITY IN MILES
HX     - HEAT INDEX IN FAHRENHEIT
WCI    - WIND CHILL INDEX IN FAHRENHEIT
TC     - TEMPERATURE IN CELSIUS WHICH IS ALSO KNOWN AS
         TEMPERATURE IN CENTIGRADE
AFB    - AIR FORCE BASE
         LUKE AFB IS LUKE AIR FORCE BASE
         DAVIS-MONTHAN IS DAVIS-MONTHAN AIR FORCE BASE
NAS    - NAVAL AIR STATION
         EL CENTRO NAS IS EL CENTRO NAVAL AIR STATION
N/A    - NOT AVAILABLE


USA.gov is the U.S. government's official web portal to all federal, state and local government web resources and services.